Find Starlink 33814

NORAD ID: 63582 Int'l Des: 2025-076 Owner: SPXS Country: US Constellation: starlink operational
LEOCIRCULAR

リアルタイム位置

3D地球を読み込み中...

Starlink 33814について

説明を読み込み中...

次回通過

Passes for default location (London). Set your location on the main map for personalized predictions.

高度履歴

Loading altitude history...

軌道要素

1 63582U 25076P 26126.68904372 .00014373 00000-0 53115-3 0 9996
2 63582 43.0033 353.8872 0001346 273.4667 86.6031 15.27558108 60703
Epoch: May 6, 2026 • Age: 8 hours

現在のステータス

高度 485.9 km
速度 7.63 km/s
衛星直下点 37.36°N, 120.89°W
打ち上げ日 Apr 14, 2025
運用期間 1 years
タイプ internet

技術仕様

分類 Payload
質量 575.00 kg
乾燥質量 530.00 kg
総質量 575.00 kg
長さ 0.30 m
直径 4.10 m
スパン 29.00 m
形状 Box + pan
製造者 SPXS
バスタイプ Starlink V2MO
フェーズステータス In Orbit
所有者/国 SPXS/US

Most Searched